Location: ??????????
(54.4061°N, 22.6114°E)
Time: 13:15:41
(UTC+00:00)

Cosmos 1763 Rocket - Pass Details

Date: 23 October 2019
Orbit: 733 x 779 km, 74.0° (Epoch: 17 November)

Event Time Altitude Azimuth Distance (km) Brightness Sun altitude
Rises 18:40:50 0° 219° (SW) 3,253 6.9 -30.2°
Reaches altitude 10° 18:43:16 10° 223° (SW) 2,326 6.2 -30.5°
Enters shadow 18:47:27 49° 260° (W) 1,002 4.3 -31.1°
